Volver al catálogo

COSMOS 2251 DEB

ActivoLEO
NORAD 34883·DEBRIS·🇷🇺 Russia

Lanzado Jun 16, 1993 desde Plesetsk Cosmodrome

Loading…

Próximos Pases (próximas 24 horas)

TLE

ActualizadoSource: Space-Track

Época: Sep 14, 2026, 00:55 UTC

1 34883U 93036ACW 26257.03821283  .00011321  00000-0  23457-2 0  9997
2 34883  74.1954 266.4927 0084272   1.2421 358.8937 14.58058622904442

Sigue COSMOS 2251 DEB en tiempo real con AllMySat

Download on the App Store